Location: Kutna Hora
(49.9500°N, 15.2670°E)
Time: 08:10:59
(UTC+02:00)

ISS - Pass Details

Date: 27 March 2019
Orbit: 408 x 410 km, 51.6° (Epoch: 22 April)

Event Time Altitude Azimuth Distance (km) Brightness Sun altitude
Rises 21:46:01 0° 285° (WNW) 2,338 0.8 -29.5°
Reaches altitude 10° 21:48:06 10° 286° (WNW) 1,476 -0.3 -29.7°
Enters shadow 21:48:14 11° 286° (WNW) 1,424 -0.4 -29.7°
